User: anonymous   Login
Location: Deep South Regional Star Gaze
(30.9929°N, 90.9586°W)
Time: 15:47:09
(UTC-06:00)
Language:

MSX - Orbit

View from above orbital plane
View from above orbital plane
View from above satellite
View from above satellite

Ground track
Ground track

The orbit data is extracted from the following two-line orbital elements,

1 23851U 96024A   16033.06192833 0.00000000  00000-0  00000-0 0    08
2 23851  98.6948  59.9783 0008004 284.3282  75.6717 13.98028931    04
Epoch (UTC): 02 February 2016 01:29:10
Eccentricity: 0.0008004
inclination: 98.6948°
perigee height: 895 km
apogee height: 906 km
right ascension of ascending node: 59.9783°
argument of perigee: 284.3282°
revolutions per day: 13.98028931
mean anomaly at epoch: 75.6717°
orbit number at epoch: 0

The dashed part of the orbit path shows where the satellite is in the earth's shadow,  

DLR